User: anonymous   Login
Location: Oberwangen
(47.4286°N, 8.9679°E)
Time: 18:21:43
(UTC+00:00)
Language:

FENGYUN 1C DEB - Orbit

View from above orbital plane
View from above orbital plane
View from above satellite
View from above satellite

Ground track
Ground track

The orbit data is extracted from the following two-line orbital elements,

1 47037U 99025FBP 22012.57279087  .00001174  00000-0  90342-3 0  9992
2 47037  98.3257 136.6731 0217866 317.2322 101.5872 13.84295755492866
Epoch (UTC): 12 January 2022 13:44:49
Eccentricity: 0.0217866
inclination: 98.3257°
perigee height: 789 km
apogee height: 1108 km
right ascension of ascending node: 136.6731°
argument of perigee: 317.2322°
revolutions per day: 13.84295755
mean anomaly at epoch: 101.5872°
orbit number at epoch: 49286

The dashed part of the orbit path shows where the satellite is in the earth's shadow,  

DLR